Location: Jackson
(42.2460°N, 84.4010°W)
Time: 07:45:58
(UTC-05:00)

ISS - Pass Details

Date: 22 January 2026
Orbit: 413 x 428 km, 51.6° (Epoch: 13 February)

Event Time Altitude Azimuth Distance (km) Brightness Sun altitude
Rises 18:02:59 0° 293° (WNW) 2,359 0.8 -4.8°
Reaches altitude 10° 18:05:38 10° 315° (NW) 1,499 -0.6 -5.3°
Maximum altitude 18:07:52 17° 357° (N) 1,167 -1.7 -5.7°
Drops below altitude 10° 18:10:08 10° 39° (NE) 1,506 -1.5 -6.1°
Enters shadow 18:11:01 - 49° (NE) 1,762 -1.2 -6.2°
